Flag for Germany Weather past 2 weeks in Ansbach, Bavaria, Germany

Now
69 °F

Scattered clouds.


Feels Like: 69 °F
Forecast: 53 / 69 °F
Wind: 10 mph from Southwest

Location: Ansbach / Katterbach

Current Time: Sep 1, 2015 at 4:59:20 PM

Latest Report: Sep 1, 2015 at 3:58 PM


Visibility: N/A

Pressure: 29.84 "Hg

Humidity: 86%

Dew point: 64 °F

Location of AnsbachLocation

Historic Weather in Ansbach — Graph

°F

Ansbach temperature yesterday

Maximum temperature yesterday: 91 °F (at 2:58 PM)
Minimum temperature yesterday: 65 °F (at 5:58 AM)
Average temperature yesterday: 78 °F

Past Weeks' High & Low Weather Summary

 TemperatureHumidityPressure
High92 °F (Aug 30, 3:58 PM)100% (Aug 17, 2:01 PM)30.31 "Hg (Aug 17, 2:01 PM)
Low49 °F (Aug 26, 5:58 AM)28% (Aug 31, 5:58 PM)29.73 "Hg (Aug 24, 3:58 PM)
Average67 °F69%30.04 "Hg
* Reported Aug 17 2:01 PM — Sep 1 2:58 PM, Ansbach, Weather by CustomWeather, © 2015

Note: Actual official high and low records may vary slightly from our data, if they occured in-between our weather recording intervals... More about our weather records

Advertising

Ansbach weather history for previous 24 hours

 ConditionsComfort  
Time TempWeatherWind HumidityBarometerVisibility
2:58 PM
Tue, Sep 1
73 °FBroken clouds.21 mph57%29.85 "HgN/A
1:58 PM79 °FPartly sunny.15 mph40%29.82 "HgN/A
12:58 PM82 °FPartly sunny.15 mph35%29.80 "HgN/A
11:58 AM82 °FSunny.6 mph40%29.79 "HgN/A
10:58 AM81 °FSunny.7 mph42%29.79 "HgN/A
9:58 AM76 °FSunny.5 mph52%29.81 "HgN/A
8:58 AM72 °FPassing clouds.3 mph61%29.81 "HgN/A
7:58 AM68 °FSunny.2 mph64%29.82 "HgN/A
6:58 AM66 °FClear.3 mph64%29.86 "HgN/A
4:58 AM67 °FClear.3 mph64%29.84 "HgN/A
3:58 AM70 °FClear.3 mph57%29.83 "HgN/A
2:58 AM70 °FClear.3 mph58%29.90 "HgN/A
1:58 AM69 °FClear.6 mph61%29.85 "HgN/A
12:58 AM72 °FClear.5 mph57%29.84 "HgN/A
10:58 PM
Mon, Aug 31
75 °FClear.2 mph49%29.85 "HgN/A
9:58 PM75 °FClear.3 mph50%29.85 "HgN/A
8:58 PM81 °FSunny.2 mph39%29.86 "HgN/A
7:58 PM82 °FSunny.6 mph37%29.86 "HgN/A
6:58 PM87 °FSunny.6 mph30%29.86 "HgN/A
5:58 PM89 °FSunny.9 mph28%29.87 "HgN/A
4:58 PM90 °FSunny.7 mph29%29.87 "HgN/A
Weather by CustomWeather, © 2015

See weather overviewHow to use our weather pages